sat.trackr.live / text

‹ back to catalog

STARLINK-35109

NORAD 65642 · 2025-210W

PAYLOAD ACTIVE UNKNOWN

§ Identity

Operator
Country
US
Launch date
2025-09-18
Launch site
AFETR
Launch vehicle
Mass (kg)
RCS (m²)

Purposes: comms

External: N2YO · Heavens-Above · Gunter

§ Orbital elements

Epoch: 2026-09-20T21:20:44.827008Z

Period
93.85 min
Inclination
53.1570°
Eccentricity
0.0001556
Mean motion
15.34416214 rev/d
Perigee alt
461.6 km
Apogee alt
463.7 km
Semi-major
6,840.8 km
B*
1.1212e-3
RAAN
115.6718°
Arg perigee
82.4604°
Mean anomaly
277.6575°
Rev number
5,768

§ Raw data

STARLINK-351091 65642U 25210W   26263.88940772  .00037715  00000+0  11212-2 0  99982 65642  53.1570 115.6718 0001556  82.4604 277.6575 15.34416214 57682

JSON: /api/v1/satellites/65642 · /tle

For live sub-satellite position, see the globe view (requires WebGL).

§ Visibility from observer

Set your observer location to see the next 7 days of passes ≥ 10°. The values pass through the URL so the page stays shareable.

No JS? Fill the form by hand. The geolocation button needs JavaScript.